Location: Erba
(45.8000°N, 9.2500°E)
Time: 05:34:12
(UTC+01:00)

ISS - Pass Details

Date: 21 February 2020
Orbit: 415 x 423 km, 51.6° (Epoch: 27 February)

Event Time Altitude Azimuth Distance (km) Brightness Sun altitude
Rises 05:52:28 0° 189° (S) 2,350 0.0 -15.4°
Reaches altitude 10° 05:55:33 10° 158° (SSE) 1,494 -0.7 -14.8°
Maximum altitude 05:56:59 12° 132° (SE) 1,367 -0.5 -14.6°
Drops below altitude 10° 05:58:25 10° 107° (ESE) 1,501 0.3 -14.3°
Sets 06:01:31 0° 76° (ENE) 2,373 1.7 -13.8°
